www.pogodaiklimat.ru

ПОГОДА в Jagdalpur

  • Прогноз погоды в Jagdalpur
  • Монитор погоды в Jagdalpur
  • Климат города

АРХИВ ПОГОДЫ в Jagdalpur

Время (UTC), дата Ветер
(напр.,м/с)
 
Видим.   Явления Облачность Т
(С)
Тd
(С)
f
(%)
Тe
(С)
Тes
(С)
Комфортность P
(гПа)
Po
(гПа)
Тmin
(С)
Tmax
(С)
R
(мм)
S
(см)
18 9.01 Ю 1 4000 м ясно +17.0 +12.9 77 +18 +18 1012.7 949.8
21 9.01 штиль 0 4000 м ясно +14.6 +10.6 77 +14 +14 1012.3 949.4
00 10.01 СЗ 1 2000 м мгла ясно +14.0 +11.5 85 +14 +14 1012.6 949.0
03 10.01 штиль 0 2000 м мгла {туман} ясно +14.6 +12.5 87 +14 +19 1014.9 951.4 +12.0
06 10.01 СЗ 2 4000 м мгла {туман} 6/4 750 м
[Sc Ac trans]
+24.4 +14.7 55 +27 +34 жарко 1013.0 951.7
09 10.01 СЗ 1 4000 м 6/3 750 м
[Sc Ac trans]
+26.4 +15.7 52 +30 +34 душно 1009.5 948.9
12 10.01 СЗ 1 4000 м 3/3 750 м
[Sc]
+24.2 +14.5 55 +27 +27 жарко 1010.2 949.0 +26.5
15 10.01 штиль 0 4000 м ясно +18.8 +14.9 78 +20 +20 1013.4 950.9
18 10.01 штиль 0 4000 м 6/4 750 м
[Sc Ac trans]
+16.4 +14.4 88 +16 +16 1014.5 951.4
21 10.01 штиль 0 4000 м 6/3 750 м
[Sc Ac trans]
+15.0 +13.3 90 +15 +15 1014.0 950.7
00 11.01 штиль 0 4000 м мгла 1/1 750 м
[Sc]
+14.6 +13.2 91 +14 +14 1013.7 950.4
03 11.01 штиль 0 200 м туман на расстоянии ясно +15.6 +14.6 94 +15 +20 1016.2 953.0 +13.0
06 11.01 СЗ 1 2000 м мгла 3/3 750 м
[Sc]
+22.6 +15.2 63 +26 +37 жарко 1014.5 952.8
09 11.01 СЗ 2 4000 м ясно +25.8 +6.9 30 +26 +34 жарко 1011.1 950.1
12 11.01 СЗ 1 4000 м ясно +24.0 +9.2 39 +25 +25 комфорт 1011.2 949.8 +26.2
15 11.01 штиль 0 4000 м ясно +18.6 +7.8 49 +19 +19 1013.9 951.3
18 11.01 штиль 0 4000 м ясно +16.0 +9.0 63 +16 +16 1014.9 951.6
21 11.01 штиль 0 4000 м ясно +11.4 +7.9 79 +11 +11 1014.1 950.1
00 12.01 штиль 0 2000 м мгла ясно +9.4 +7.0 85 +9 +9 1014.9 950.4
03 12.01 штиль 0 4000 м мгла ясно +15.0 +9.1 68 +15 +20 1016.7 953.1 +8.4
06 12.01 штиль 0 4000 м ясно +22.4 +8.2 40 +24 +41 комфорт 1014.8 952.9
09 12.01 З 1 4000 м ясно +25.2 +7.0 31 +25 +34 комфорт 1010.5 949.5
12 12.01 штиль 0 4000 м ясно +23.4 +7.3 36 +24 +24 комфорт 1010.5 949.1 +26.1
15 12.01 штиль 0 4000 м ясно +16.4 +9.5 64 +16 +16 1014.4 951.3
18 12.01 штиль 0 4000 м ясно +13.2 +8.2 72 +13 +13 1015.4 951.7
21 12.01 штиль 0 4000 м ясно +10.8 +8.1 83 +10 +10 1015.4 951.0
00 13.01 штиль 0 2000 м мгла ясно +10.6 +8.7 88 +10 +10 1015.6 951.2
03 13.01 штиль 0 2000 м мгла ясно +13.4 +8.0 70 1016.0 952.7 +8.3
06 13.01 СЗ 1 4000 м ясно +22.2 +9.9 46 +24 +39 комфорт 1015.2 953.3
09 13.01 СЗ 2 4000 м ясно +25.0 +7.7 33 +25 +33 комфорт 1012.1 950.8
12 13.01 штиль 0 4000 м ясно +23.6 +10.0 42 +25 +25 комфорт 1011.6 950.2 +26.2
15 13.01 штиль 0 4000 м ясно +17.4 +9.8 61 +17 +17 1014.9 952.1
18 13.01 штиль 0 4000 м ясно +14.0 +9.0 72 +14 +14 1016.4 952.7
21 13.01 штиль 0 4000 м ясно +12.8 +9.8 82 +12 +12 1015.9 952.0
00 14.01 штиль 0 4000 м ясно +9.4 +7.6 89 +9 +9 1016.7 952.1
03 14.01 штиль 0 2000 м мгла ясно +13.6 +8.7 72 +13 +18 1018.1 954.2 +8.0
06 14.01 В 2 4000 м 3/0
[Ci fib]
+23.0 +7.7 37 +24 +37 комфорт 1016.4 954.5
09 14.01 Ю 2 4000 м 5/0
[Ac As Cs]
+26.8 +8.0 30 +27 +32 жарко 1013.0 952.1
12 14.01 штиль 0 4000 м ясно +24.4 +8.8 37 +25 +25 комфорт 1013.4 952.1 +27.6
15 14.01 штиль 0 4000 м ясно +16.6 +8.4 58 +17 +17 1017.4 954.2
18 14.01 штиль 0 4000 м ясно +13.0 +8.0 72 +13 +13 1018.8 954.7
21 14.01 штиль 0 4000 м ясно +11.2 +7.7 79 +11 +11 1018.5 954.0
00 15.01 штиль 0 2000 м мгла ясно +9.2 +6.8 85 +8 +8 1019.4 954.6
03 15.01 СЗ 2 2000 м мгла ясно +13.4 +7.2 66 +13 +17 1020.6 956.6 +7.4
06 15.01 СВ 2 4000 м ясно +23.4 +6.8 34 +24 +37 комфорт 1017.7 955.9
09 15.01 штиль 0 4000 м ясно +26.4 +4.5 24 +25 +36 комфорт 1013.3 952.4
12 15.01 штиль 0 4000 м ясно +25.0 +8.2 34 +25 +25 комфорт 1014.1 952.8 +27.9
15 15.01 штиль 0 4000 м ясно +17.0 +8.0 55 +17 +17 1017.3 954.1
18 15.01 штиль 0 4000 м ясно +13.0 +6.2 63 +13 +13 1018.4 954.3
21 15.01 штиль 0 4000 м ясно +10.0 +6.8 80 +9 +9 1018.3 953.5
00 16.01 штиль 0 2000 м мгла ясно +8.8 +6.8 87 +8 +8 1019.0 954.0
03 16.01 штиль 0 2000 м мгла ясно +12.8 +7.6 71 +12 +18 1020.2 956.0 +7.5
06 16.01 СВ 1 4000 м ясно +24.4 +6.5 32 +24 +40 комфорт 1016.9 955.3
09 16.01 С 2 4000 м ясно +28.4 +3.8 21 +27 +34 жарко 1012.4 951.7
12 16.01 штиль 0 4000 м ясно +26.0 +7.7 31 +26 +26 жарко 1012.9 951.8 +29.3
15 16.01 штиль 0 4000 м ясно +17.6 +8.3 54 +18 +18 1016.7 953.8

 

Местоположение метеостанции Jagdalpur (Chhattisgarh, Индия): широта 19.08 долгота 82.03 высота над уровнем моря 553 м.

В архиве по умолчанию представлена погода в Jagdalpur за последнюю неделю. Архивные данные за месяц целиком и за предыдущие месяцы, начиная с января 2011 года, Вы можете получить, выбрав интересующий диапазон дат из раскрывающегося списка и нажав кнопку "Ввод!".

Внимание! Время в таблицах - всемирное. Для получения местного времени необходимо прибавить поправку, которая в Jagdalpur равна 5.5 ч.

Ветер - указаны скорость ветра в м/с - средняя за 10 мин, порывы в срок и между сроками (в фигурных скобках) и направление, откуда дует ветер: С - северный, СВ - северо-восточный, В - восточный, ЮВ - юго-восточный, Ю - южный, ЮЗ - юго-западный, З - западный, СЗ - северо-западный.
Видимость - горизонтальная дальность видимости в метрах или километрах. При видимости от 1 до 10 км при отсутствии осадков обычно наблюдается дымка, при ухудшении видимости до 1 км и менее - туман. В сухую погоду видимость может ухудшаться дымом, пылью или мглою.
Явления - указаны атмосферные явления, наблюдавшиеся в срок или в последний час перед сроком; фигурными скобками обозначены явления, наблюдавшиеся между сроками (за 1-3 часа до срока); квадратными скобками обозначены град или гололедные отложения с указанием их диаметра в мм.
Облачность - указаны через наклонную черту общая и нижняя облачность в баллах и высота нижней границы облаков в метрах; квадратными скобками обозначены формы облаков: Ci - перистые, Cs - перисто-слоистые, Cc - перисто-кучевые, Ac - высококучевые, As - высокослоистые, Sc - слоисто-кучевые, Ns - слоисто-дождевые, Cu - кучевые, Cb - кучево-дождевые. Подробнее классификацию облаков см. в Атласе облаков (PDF).
T - Температура воздуха - температура, измеренная на высоте 2 м над землей.
Td - Температура точки росы - температура, при понижении до которой содержащийся в воздухе водяной пар достигнет насыщения.
f - Относительная влажность воздуха - влажноcть воздуха, измеренная на высоте 2 м над землей.
Te - Эффективная температура - температура, которую ощущает одетый по сезону человек в тени. Характеристика душности погоды. При расчете учитывается влияние влажности воздуха и скорости ветра на теплоощущения человека.
Tes - Эффективная температура на солнце - температура, которую ощущает человек, с поправкой на солнечный нагрев. Характеристика знойности погоды. Зависит от высоты солнца над горизонтом, облачности и скорости ветра. Ночью, в пасмурную погоду, а также при ветре 12 м/с и более поправка равна нулю.
P - Атмосферное давление - приведенное к уровню моря атмосферное давление.
Po - Атмосферное давление - измеренное на уровне метеостанции атмосферное давление.
Tmin - Минимальная температура - минимум температуры воздуха на высоте 2 м над землей.
Tmax - Максимальная температура - максимум температуры воздуха на высоте 2 м над землей.
R - Количество осадков - Количество выпавших осадков, мм. При наведении курсора мыши на число - период времени, за который выпало указанное количество осадков.
S - Снежный покров - Высота снежного покрова, см. При наведении курсора мыши на число - состояние снежного покрова и степень покрытия местности в баллах.